Regional Weather Roundup
Issued by NWS

Home | Current Version | Previous Version | Text Only | Print | Product List | Glossary Off
Versions: 1 2 3 4 5 6 7 8 9 10 11 12 13 14 15 16 17 18 19 20 21 22 23 24 25 26 27 28 29 30 31 32 33 34 35 36 37 38 39 40 41 42 43 44 45 46 47 48 49 50

000
ASUS43 KOAX 240310
RWRNE

WEATHER ROUNDUP FOR NEBRASKA
NATIONAL WEATHER SERVICE OMAHA NE
1000 PM CDT FRI JUN 23 2017

NOTES: SATELLITE DATA IS BEING USED TO AUGMENT CLOUD COVER ABOVE
       12000 FEET.
       "FAIR" INDICATES FEW OR NO CLOUDS BELOW 12,000 FEET WITH NO
       SIGNIFICANT WEATHER AND/OR OBSTRUCTIONS TO VISIBILITY.

  * THESE STATIONS DO NOT REPORT WEATHER SUCH AS RAIN...SNOW OR FOG.

NEZ001>004-019>022-054>056-240400-
NEBRASKA PANHANDLE

CITY           SKY/WX    TMP DP  RH WIND       PRES   REMARKS
SCOTTSBLUFF    CLEAR     61  30  31 NE8       30.24R
ALLIANCE       CLEAR     58  38  47 N7        30.22R
CHADRON        CLEAR     59  36  42 NE3       30.22R
GORDON         FAIR      56  36  45 CALM      30.22R
KIMBALL        CLEAR     57  40  53 NE7       30.27R
SIDNEY         PTCLDY    61  34  36 NE8       30.25R
$$

NEZ057>060-069>072-079>082-240400-
SOUTHWEST NEBRASKA

CITY           SKY/WX    TMP DP  RH WIND       PRES   REMARKS
NORTH PLATTE   CLEAR     60  41  49 NE5       30.17R
IMPERIAL       CLEAR     59  42  53 N7        30.19R
LEXINGTON      CLEAR     61  43  51 NE6       30.16R
MCCOOK         CLEAR     63  43  48 NE8       30.15R
OGALLALA       CLEAR     65  33  30 N10       30.20R
$$

NEZ005>010-023>029-035>040-094-240400-
NORTH CENTRAL NEBRASKA

CITY           SKY/WX    TMP DP  RH WIND       PRES   REMARKS
VALENTINE      CLEAR     61  30  31 N6        30.18R
AINSWORTH      CLEAR     56  36  47 N7        30.17R
BROKEN BOW     CLEAR     57  44  62 N5        30.15R
O`NEILL        CLEAR     56  40  54 NW6       30.14R
ORD            CLEAR     60  39  45 NW6       30.13R
THEDFORD       CLEAR     62  37  39 N6        30.19R
$$

NEZ041-046>049-061>064-073>077-083>087-240400-
SOUTH CENTRAL NEBRASKA

CITY           SKY/WX    TMP DP  RH WIND       PRES   REMARKS
GRAND ISLAND   CLEAR     62  45  53 N7        30.14R
AURORA         CLEAR     59  48  67 N7        30.13R
HASTINGS       CLEAR     62  46  55 N6        30.15R
HEBRON         PTCLDY    67  50  53 N3        30.11R
HOLDREGE       CLEAR     61  47  59 NE5       30.15R
KEARNEY *      CLEAR     61  41  48 N8        30.15R
YORK           CLEAR     61  48  63 NW7       30.12R
$$

NEZ011>018-030>034-042>045-240400-
NORTHEAST NEBRASKA

CITY           SKY/WX    TMP DP  RH WIND       PRES   REMARKS
NORFOLK        CLEAR     61  36  39 NW6       30.09R
ALBION         CLEAR     62  38  41 N5        30.12R
BLAIR          CLEAR     64  49  56 W3        30.07R
FREMONT        CLEAR     63  48  59 NW3       30.08R
TEKAMAH        PTCLDY    63  46  54 W8        30.06R
WAYNE          CLEAR     60  40  48 NW7       30.08R
$$

NEZ050>053-065>068-078-088>093-240400-
SOUTHEAST NEBRASKA

CITY           SKY/WX    TMP DP  RH WIND       PRES   REMARKS
LINCOLN        CLEAR     68  49  50 NW6       30.09R
OMAHA EPPLEY   PTCLDY    62  50  64 NW7       30.06R
BEATRICE       CLEAR     62  52  71 N6        30.10R
FALLS CITY     CLEAR     63  56  78 NW6       30.06R
NEBRASKA CITY  CLEAR     65  54  69 NW7       30.08R
PLATTSMOUTH    PTCLDY    63  50  63 NW6       30.07R
$$

NEZ044-045-051>053-067-240400-
OMAHA AREA

CITY           SKY/WX    TMP DP  RH WIND       PRES   REMARKS
OMAHA EPPLEY   PTCLDY    62  50  64 NW7       30.06R
BLAIR          CLEAR     64  49  56 W3        30.07R
FREMONT        CLEAR     63  48  59 NW3       30.08R
MILLARD        CLEAR     67  51  57 CALM      30.07R
OFFUTT AFB     CLEAR     62  50  63 NW7       30.06R
PLATTSMOUTH    PTCLDY    63  50  63 NW6       30.07R
WAHOO          FAIR      63  47  56 NW6       30.08R
$$



USA.gov is the U.S. government's official web portal to all federal, state and local government web resources and services.